World > North America > United States > New Hampshire

Boscawen, New Hampshire Regional Weather

Lat: 43.31N, Lon: 71.62W
Wx Zone: NHZ008
Feedback

Boscawen, NH Regional Weather

Expires:201909211200;;122265
ASUS41 KBOX 211110
RWRBOX

REGIONAL WEATHER ROUNDUP
NATIONAL WEATHER SERVICE BOSTON/NORTON MA
700 AM EDT SAT SEP 21 2019

NOTE:  "FAIR" INDICATES FEW OR NO CLOUDS BELOW 12,000 FEET WITH NO 
SIGNIFICANT WEATHER AND/OR OBSTRUCTIONS TO VISIBILITY.


MEZ002-015-021-024-NHZ003-005-008-011-012-014-VTZ005-008-211200-
NORTHERN NEW ENGLAND
  
CITY           SKY/WX    TMP DP  RH WIND       PRES   REMARKS
PORTLAND ME    FAIR      57  50  77 W3        30.16R                  
BANGOR ME      FAIR      56  53  90 CALM      30.12R                  
CONCORD NH     FAIR      49  46  90 CALM      30.19R                  
MANCHESTER NH  FAIR      61  51  70 N7        30.17R                  
NASHUA NH      FAIR      53  53 100 CALM      30.19R                  
PORTSMOUTH NH  NOT AVBL                                               
JAFFREY NH     FAIR      49  46  90 CALM      30.22R                  
KEENE NH       FAIR      45  45 100 CALM      30.23R                  
BURLINGTON VT  FAIR      52  49  89 CALM      30.22R                  
MT. WASHINGTON FOG       46  46 100 NW38G48     N/A  VSB 0            
$$


SKY/WX - Weather  TMP - Temperature  DP - Dew Point  RH - Relative Humidity
WIND - Wind Direction/Speed PRES - Barometric Pressure VSB - Visibility
WCI - Wind Chill Index E13G22 Wind - East Wind 13 mph/Gusts of 22 mph